Regional Weather Roundup
Issued by NWS

Home | Current Version | Previous Version | Text Only | Print | Product List | Glossary Off
Versions: 1 2 3 4 5 6 7 8 9 10 11 12 13 14 15 16 17 18 19 20 21 22 23 24 25 26 27 28 29 30 31 32 33 34 35 36 37 38 39 40 41 42 43 44 45 46 47 48 49 50

813
ASUS44 KLIX 251501
RWRLA
LOUISIANA WEATHER ROUNDUP
NATIONAL WEATHER SERVICE NEW ORLEANS LA
1000 AM CDT SAT OCT 25 2014

NOTE: "FAIR" INDICATES FEW OR NO CLOUDS BELOW 12,000 FEET WITH NO
      SIGNIFICANT WEATHER AND/OR OBSTRUCTIONS TO VISIBILITY.
      SKY/WX - SKY CONDITION AND SIGNIFICANT WEATHER.
      TMP - AIR TEMPERATURE.    DP   - DEWPOINT TEMPERATURE.
      RH  - RELATIVE HUMIDITY.  PRES - PRESSURE.
      HX  - HEAT INDEX.         WCI  - WIND CHILL INDEX.

*  THESE STATIONS ARE NOT NWS OR FAA STATIONS AND ARE NOT UNDER
   NWS QUALITY CONTROL.

LAZ040-048-061>063-065-066-069-251600-
SOUTHEAST LOUISIANA

CITY           SKY/WX    TMP DP  RH WIND       PRES   REMARKS
N.O. AUDUBON     N/A     73  57  57 MISG        N/A
N.O. INTL ARPT SUNNY     70  53  54 NE9       30.16R
N.O. LAKEFRONT SUNNY     67  53  61 NE6       30.17R
N.O. DOWNTOWN* FAIR      68  48  49 NE7       30.17S
SLIDELL        SUNNY     66  53  63 N6        30.16R
BATON ROUGE    SUNNY     66  51  58 NE6       30.18R
BOOTHVILLE     SUNNY     71  55  56 N9        30.15R
BELLE CHASSE   MOSUNNY   69  52  54 NE7       30.16R
BOGALUSA*        N/A     66  51  59 NE7       30.19R
NEW ROADS*     FAIR      63  52  66 CALM      30.18S
GONZALES*      FAIR      65  53  63 NE6       30.18R
HAMMOND*       NOT AVBL
HOUMA*         NOT AVBL
PORT FOURCHON* SUNNY     70  54  56 NE12      30.18S

$$

LAZ041-044-053-054-251600-
SOUTHWEST LOUISIANA

CITY           SKY/WX    TMP DP  RH WIND       PRES   REMARKS
LAKE CHARLES   SUNNY     67  53  61 NE5       30.19R
LAFAYETTE      SUNNY     67  52  58 NE5       30.18R
PATTERSON      SUNNY     66  54  63 E6        30.20R
SALT POINT       N/A     67  53  61 VRB6      30.16R
NEW IBERIA     SUNNY     68  51  54 NE5       30.19R
CHENAULT AIRPK SUNNY     64  55  72 CALM      30.19R

$$

LAZ027-028-251600-
CENTRAL LOUISIANA

CITY           SKY/WX    TMP DP  RH WIND       PRES   REMARKS
FORT POLK      SUNNY     68  56  65 VRB2      30.18S
ALEXANDRIA INT SUNNY     63  55  75 CALM      30.17S
ALEXANDRIA     SUNNY     64  56  75 CALM      30.18R

$$

LAZ001-002-251600-
NORTHWEST LOUISIANA

CITY           SKY/WX    TMP DP  RH WIND       PRES   REMARKS
SHREVEPORT     SUNNY     69  58  67 SW3       30.17R
BARKSDALE AFB  SUNNY     67  56  68 W3        30.18R
DTN SHREVEPORT SUNNY     68  57  68 SW5       30.18R

$$

LAZ014-016-251600-
NORTHEAST LOUISIANA

CITY           SKY/WX    TMP DP  RH WIND       PRES   REMARKS
MONROE         SUNNY     66  55  67 W3        30.19R
TALLULAH       SUNNY     65  55  70 CALM      30.18R

$$




USA.gov is the U.S. government's official web portal to all federal, state and local government web resources and services.